When you browse on this site, cookies collect data to enhance your experience and personalize the content and advertising you see.
Visit our Privacy Policy to learn more. By continuing to use the site, you agree to this use of cookies and data.
  • In United Kingdom
  • List of Countries
  • For 7 days
  • Water Temperature
  • Weather Map
  • Weather Widgets
  • user-avatar
    Login

    Hourly Weather Gweru

    Today, 20 September, Friday

    Time Temperature Precipitation Wind Pressure Humidity
    00:00 +15°C° 0 mm 4 mps 647 mmHg 43%
    01:00 +14°C° 0 mm 4 mps 647 mmHg 47%
    02:00 +13°C° 0 mm 4 mps 646 mmHg 51%
    03:00 +13°C° 0 mm 4 mps 646 mmHg 53%
    04:00 +13°C° 0 mm 4 mps 646 mmHg 54%
    05:00 +13°C° 0 mm 4 mps 646 mmHg 55%
    06:00 +15°C° 0 mm 5 mps 647 mmHg 45%
    07:00 +19°C° 0 mm 5 mps 648 mmHg 34%
    08:00 +21°C° 0 mm 6 mps 649 mmHg 24%
    09:00 +24°C° 0 mm 6 mps 649 mmHg 18%
    10:00 +27°C° 0 mm 6 mps 649 mmHg 13%
    11:00 +30°C° 0 mm 6 mps 650 mmHg 7%
    12:00 +32°C° 0 mm 6 mps 649 mmHg 7%
    13:00 +33°C° 0 mm 6 mps 648 mmHg 6%
    14:00 +33°C° 0 mm 6 mps 648 mmHg 5%
    15:00 +32°C° 0 mm 6 mps 647 mmHg 6%
    16:00 +30°C° 0 mm 6 mps 647 mmHg 7%
    17:00 +29°C° 0 mm 6 mps 646 mmHg 9%
    18:00 +26°C° 0 mm 5 mps 646 mmHg 13%
    19:00 +22°C° 0 mm 4 mps 646 mmHg 18%
    20:00 +19°C° 0 mm 4 mps 645 mmHg 23%
    21:00 +18°C° 0 mm 3 mps 645 mmHg 32%
    22:00 +17°C° 0 mm 3 mps 645 mmHg 40%
    23:00 +16°C° 0 mm 3 mps 646 mmHg 48%

    Tomorrow, 21 September, Saturday

    Time Temperature Precipitation Wind Pressure Humidity
    00:00 +14°C° 0 mm 3 mps 645 mmHg 53%
    01:00 +14°C° 0 mm 2 mps 644 mmHg 58%
    02:00 +13°C° 0 mm 2 mps 644 mmHg 62%
    03:00 +12°C° 0 mm 2 mps 644 mmHg 64%
    04:00 +12°C° 0 mm 2 mps 644 mmHg 66%
    05:00 +10°C° 0 mm 2 mps 644 mmHg 68%
    06:00 +15°C° 0 mm 2 mps 645 mmHg 56%
    07:00 +18°C° 0 mm 2 mps 646 mmHg 45%
    08:00 +21°C° 0 mm 2 mps 647 mmHg 33%
    09:00 +25°C° 0 mm 3 mps 647 mmHg 25%
    10:00 +28°C° 0 mm 3 mps 648 mmHg 16%
    11:00 +31°C° 0 mm 3 mps 648 mmHg 8%
    12:00 +33°C° 0 mm 3 mps 647 mmHg 7%
    13:00 +34°C° 0 mm 3 mps 647 mmHg 6%
    14:00 +35°C° 0 mm 3 mps 646 mmHg 4%
    15:00 +34°C° 0 mm 3 mps 645 mmHg 5%
    16:00 +34°C° 0 mm 3 mps 645 mmHg 5%
    17:00 +33°C° 0 mm 3 mps 645 mmHg 5%
    18:00 +28°C° 0 mm 3 mps 644 mmHg 9%
    19:00 +24°C° 0 mm 3 mps 643 mmHg 12%
    20:00 +19°C° 0 mm 2 mps 643 mmHg 16%
    21:00 +18°C° 0 mm 2 mps 643 mmHg 19%
    22:00 +17°C° 0 mm 2 mps 643 mmHg 22%
    23:00 +16°C° 0 mm 2 mps 643 mmHg 24%

    Day after tomorrow, 22 September, Sunday

    Time Temperature Precipitation Wind Pressure Humidity
    00:00 +16°C° 0 mm 2 mps 643 mmHg 28%
    01:00 +15°C° 0 mm 2 mps 643 mmHg 31%
    02:00 +14°C° 0 mm 2 mps 642 mmHg 35%
    03:00 +15°C° 0 mm 2 mps 642 mmHg 38%
    04:00 +15°C° 0 mm 2 mps 642 mmHg 40%
    05:00 +15°C° 0 mm 2 mps 642 mmHg 43%
    06:00 +18°C° 0 mm 3 mps 643 mmHg 37%
    07:00 +21°C° 0 mm 3 mps 644 mmHg 31%
    08:00 +25°C° 0 mm 3 mps 646 mmHg 25%
    09:00 +28°C° 0 mm 3 mps 646 mmHg 20%
    10:00 +30°C° 0 mm 3 mps 646 mmHg 15%
    11:00 +34°C° 0 mm 2 mps 646 mmHg 10%
    12:00 +35°C° 0 mm 2 mps 646 mmHg 9%
    13:00 +36°C° 0 mm 2 mps 646 mmHg 8%
    14:00 +37°C° 0 mm 2 mps 645 mmHg 7%
    15:00 +36°C° 0 mm 2 mps 645 mmHg 7%
    16:00 +35°C° 0 mm 2 mps 644 mmHg 7%
    17:00 +34°C° 0 mm 2 mps 644 mmHg 8%
    18:00 +30°C° 0 mm 2 mps 644 mmHg 11%
    19:00 +26°C° 0 mm 2 mps 643 mmHg 14%
    20:00 +23°C° 0 mm 2 mps 643 mmHg 17%
    21:00 +21°C° 0 mm 2 mps 643 mmHg 18%
    22:00 +20°C° 0 mm 3 mps 643 mmHg 19%
    23:00 +20°C° 0 mm 3 mps 644 mmHg 21%

    23 September, Monday

    Time Temperature Precipitation Wind Pressure Humidity
    00:00 +19°C° 0 mm 3 mps 643 mmHg 24%
    01:00 +17°C° 0 mm 2 mps 643 mmHg 27%
    02:00 +16°C° 0 mm 2 mps 642 mmHg 30%
    03:00 +16°C° 0 mm 2 mps 642 mmHg 33%
    04:00 +16°C° 0 mm 2 mps 642 mmHg 36%
    05:00 +16°C° 0 mm 3 mps 642 mmHg 39%
    06:00 +19°C° 0 mm 3 mps 644 mmHg 35%
    07:00 +24°C° 0 mm 3 mps 645 mmHg 30%
    08:00 +27°C° 0 mm 4 mps 646 mmHg 25%
    09:00 +29°C° 0 mm 4 mps 647 mmHg 20%
    10:00 +33°C° 0 mm 3 mps 647 mmHg 15%
    11:00 +36°C° 0 mm 3 mps 648 mmHg 10%
    12:00 +36°C° 0 mm 4 mps 647 mmHg 11%
    13:00 +35°C° 0 mm 6 mps 647 mmHg 12%
    14:00 +35°C° 0 mm 7 mps 646 mmHg 13%
    15:00 +34°C° 0 mm 7 mps 646 mmHg 18%
    16:00 +32°C° 0 mm 8 mps 645 mmHg 23%
    17:00 +31°C° 0 mm 8 mps 645 mmHg 28%
    18:00 +27°C° 0 mm 8 mps 645 mmHg 38%
    19:00 +24°C° 0 mm 8 mps 645 mmHg 49%
    20:00 +21°C° 0 mm 7 mps 646 mmHg 60%
    21:00 +20°C° 0 mm 7 mps 646 mmHg 67%
    22:00 +18°C° 0 mm 7 mps 646 mmHg 75%
    23:00 +16°C° 0 mm 7 mps 646 mmHg 82%

    24 September, Tuesday

    Time Temperature Precipitation Wind Pressure Humidity
    00:00 +16°C° 0 mm 6 mps 646 mmHg 82%
    01:00 +16°C° 0 mm 6 mps 646 mmHg 82%
    02:00 +16°C° 0 mm 5 mps 646 mmHg 82%
    03:00 +16°C° 0 mm 5 mps 646 mmHg 83%
    04:00 +16°C° 0 mm 5 mps 646 mmHg 84%
    05:00 +15°C° 0 mm 5 mps 646 mmHg 85%
    06:00 +16°C° 0 mm 6 mps 646 mmHg 81%
    07:00 +17°C° 0 mm 6 mps 647 mmHg 77%
    08:00 +17°C° 0 mm 6 mps 647 mmHg 74%
    09:00 +20°C° 0 mm 6 mps 648 mmHg 65%
    10:00 +22°C° 0 mm 5 mps 648 mmHg 56%
    11:00 +25°C° 0 mm 5 mps 648 mmHg 47%
    12:00 +27°C° 0 mm 5 mps 648 mmHg 43%
    13:00 +28°C° 0 mm 5 mps 647 mmHg 38%
    14:00 +29°C° 0 mm 5 mps 647 mmHg 34%
    15:00 +29°C° 0 mm 5 mps 647 mmHg 36%
    16:00 +28°C° 0 mm 5 mps 646 mmHg 38%
    17:00 +27°C° 0 mm 5 mps 646 mmHg 40%
    18:00 +23°C° 0 mm 5 mps 646 mmHg 51%
    19:00 +20°C° 0 mm 5 mps 646 mmHg 62%
    20:00 +16°C° 0 mm 5 mps 646 mmHg 73%
    21:00 +15°C° 0 mm 5 mps 646 mmHg 79%
    22:00 +13°C° 0 mm 4 mps 646 mmHg 84%
    23:00 +12°C° 0 mm 4 mps 645 mmHg 90%

    25 September, Wednesday

    Time Temperature Precipitation Wind Pressure Humidity
    00:00 +12°C° 0 mm 5 mps 645 mmHg 91%
    01:00 +12°C° 0 mm 5 mps 645 mmHg 92%
    02:00 +12°C° 0 mm 5 mps 645 mmHg 93%
    03:00 +12°C° 0 mm 5 mps 645 mmHg 90%
    04:00 +11°C° 0 mm 6 mps 645 mmHg 87%
    05:00 +11°C° 0 mm 6 mps 646 mmHg 84%
    06:00 +13°C° 0 mm 6 mps 646 mmHg 79%
    07:00 +14°C° 0 mm 6 mps 647 mmHg 74%
    08:00 +15°C° 0 mm 5 mps 648 mmHg 69%
    09:00 +17°C° 0 mm 5 mps 648 mmHg 61%
    10:00 +20°C° 0 mm 5 mps 648 mmHg 53%
    11:00 +22°C° 0 mm 6 mps 649 mmHg 45%
    12:00 +22°C° 0 mm 6 mps 648 mmHg 43%
    13:00 +23°C° 0 mm 6 mps 648 mmHg 41%
    14:00 +24°C° 0 mm 7 mps 647 mmHg 40%
    15:00 +22°C° 0 mm 7 mps 647 mmHg 42%
    16:00 +21°C° 0 mm 7 mps 647 mmHg 44%
    17:00 +20°C° 0 mm 7 mps 647 mmHg 46%
    18:00 +17°C° 0 mm 7 mps 647 mmHg 54%
    19:00 +14°C° 0 mm 7 mps 647 mmHg 62%
    20:00 +11°C° 0 mm 7 mps 647 mmHg 71%
    21:00 +11°C° 0 mm 7 mps 647 mmHg 72%
    22:00 +10°C° 0 mm 6 mps 648 mmHg 74%
    23:00 +10°C° 0 mm 6 mps 648 mmHg 76%
    Show more